GFSFLT1_sfc_30mbdewp_003.txt.gz
Dewpoint
30 29 30 32 36 34 32 38 39 39 38 38 36 36 38 40 39 44 47 46 45 42 43 44 42 38 38 38 36 37 36 35
30 30 31 32 32 31 27 27 28 33 33 33 33 32 32 35 36 37 43 46 44 41 39 41 42 38 37 38 37 35 35 36
29 29 28 28 29 29 29 29 29 30 31 31 31 31 31 32 33 35 39 44 44 42 38 38 41 40 38 38 37 36 36 37
29 28 27 28 27 28 28 28 29 30 32 32 32 33 33 32 32 33 34 40 44 43 39 36 38 41 38 37 37 36 32 36
28 30 30 30 30 31 31 31 32 32 33 33 32 31 31 31 32 32 32 36 37 41 40 37 36 38 37 35 36 35 33 30
27 28 28 30 32 32 36 37 37 37 37 37 37 36 36 36 35 35 34 33 36 39 40 38 37 38 37 37 35 31 27 26
31 32 35 37 38 37 37 37 37 37 36 37 37 36 36 37 37 36 36 36 36 37 38 38 36 32 29 27 26 25 26 26
30 32 36 37 37 37 37 37 37 37 37 36 34 35 36 37 36 37 36 34 34 34 33 31 31 32 34 34 35 35 34 34
35 36 37 36 37 38 38 38 37 37 36 30 30 32 34 35 36 35 36 32 32 34 37 38 39 39 40 40 40 38 37 35
35 36 36 36 36 37 38 37 37 38 32 29 31 31 31 32 31 33 32 32 35 39 39 39 39 39 39 39 37 36 33 31
35 36 36 36 37 38 38 38 38 37 29 31 31 31 30 31 31 30 30 34 38 39 38 34 33 35 37 37 36 32 31 30
36 37 37 37 38 38 38 38 39 33 31 32 32 32 29 29 29 30 32 35 33 31 30 30 34 36 35 34 31 29 28 27
37 38 38 38 38 39 38 39 38 32 33 33 32 30 29 26 28 29 29 26 26 26 27 27 28 28 28 28 26 25 24 22
38 38 38 38 39 39 38 39 33 34 34 32 29 26 25 26 27 27 26 24 24 24 24 23 25 27 26 25 24 23 23 24
38 38 38 38 39 38 38 36 35 35 35 30 24 22 24 26 26 29 32 31 27 26 25 26 27 25 23 23 23 24 23 23
38 38 37 39 39 38 38 36 35 37 37 31 31 30 30 31 36 36 33 30 28 29 27 23 22 22 22 25 24 23 22 21
38 36 37 39 39 37 35 35 36 38 37 37 37 37 37 37 36 35 34 35 34 26 21 20 20 22 29 26 26 25 23 22
35 36 38 39 36 36 35 35 37 37 37 37 37 37 38 37 36 36 36 27 22 19 19 21 23 24 25 26 24 24 23 23
34 38 38 35 35 34 35 36 36 36 31 26 26 27 27 27 23 21 19 18 18 18 20 23 23 24 25 24 24 23 22 23

GFSFLT1_sfc_30mbdewp_009.txt.gz
Dewpoint
31 32 32 35 42 45 47 47 49 49 47 46 43 43 42 43 43 44 46 46 50 50 50 50 49 46 46 45 44 42 38 37
31 33 35 36 39 42 42 42 44 42 39 37 36 36 36 37 37 39 40 41 44 47 47 47 48 46 45 44 43 42 39 40
31 33 35 37 38 38 34 33 34 34 34 35 36 36 36 37 38 40 40 40 40 41 44 44 44 45 46 46 44 41 39 40
29 30 32 33 33 33 33 34 36 38 39 37 38 38 38 36 35 36 37 40 40 40 41 42 43 44 43 45 45 42 39 39
30 31 33 35 36 40 39 39 39 39 40 38 37 35 34 35 36 36 38 39 40 40 40 41 42 43 43 43 43 43 41 38
33 37 38 38 39 40 40 39 39 40 39 37 36 36 36 36 36 35 35 37 39 39 39 40 41 41 42 42 43 42 40 39
35 38 38 38 40 41 41 39 39 40 40 36 37 37 37 37 36 35 34 35 36 37 37 39 39 39 38 38 36 37 36 36
36 37 37 37 38 39 39 39 38 39 40 36 36 38 38 36 35 34 33 34 34 36 37 39 39 39 39 39 39 39 39 38
37 37 37 37 38 39 40 39 38 39 40 38 37 38 37 35 35 35 35 34 35 39 39 39 39 39 39 39 39 38 37 37
36 37 38 39 39 39 40 40 38 39 41 38 37 37 36 35 36 34 33 35 37 39 39 39 39 39 39 38 38 37 35 35
36 36 38 39 40 40 41 41 39 39 40 36 36 36 36 34 31 32 33 35 39 40 36 34 33 33 32 35 35 36 36 35
37 37 38 39 40 40 40 41 39 40 36 36 37 35 31 28 30 32 34 37 34 31 29 30 31 32 31 32 33 32 30 29
38 38 39 40 39 38 40 41 40 36 36 37 35 30 27 29 31 31 32 30 29 29 30 33 34 33 30 29 28 26 24 22
38 38 39 38 36 38 40 39 37 36 37 37 33 31 30 35 36 36 36 35 34 35 35 37 35 30 26 25 24 24 24 23
39 39 35 34 36 38 38 37 36 36 38 36 35 34 35 36 36 36 36 35 34 35 35 34 35 32 25 21 22 23 24 23
38 34 32 33 35 37 36 35 36 38 37 37 37 37 37 37 33 32 33 32 32 34 34 32 24 23 21 25 25 24 24 23
34 33 32 32 36 35 34 34 36 38 37 31 29 29 29 29 30 30 31 28 24 22 21 21 23 23 27 28 27 24 23 21
31 27 31 34 35 34 33 34 34 34 29 28 28 30 26 23 22 21 20 20 20 19 20 23 23 22 21 22 22 20 20 20
27 28 34 36 34 32 32 31 30 29 28 30 30 26 22 22 21 20 19 19 19 19 22 21 19 17 20 20 21 20 21 20

GFSFLT1_sfc_30mbdewp_015.txt.gz
Dewpoint
41 39 38 36 40 46 48 53 51 48 45 45 41 41 40 40 39 39 42 43 44 44 44 44 45 43 43 44 47 46 46 45
37 38 38 41 46 47 48 48 45 41 38 37 36 37 37 38 39 41 42 41 41 40 39 39 41 39 41 44 45 44 45 46
35 39 41 41 41 41 40 39 39 38 37 38 41 41 40 40 41 40 38 38 38 37 37 37 36 37 40 42 43 43 44 44
32 36 39 41 41 39 39 39 40 41 40 38 38 38 37 37 37 38 37 39 37 36 35 35 37 39 38 40 40 40 40 41
33 36 39 41 42 41 40 40 39 40 41 39 40 38 38 38 38 38 38 36 33 32 32 35 38 40 41 41 37 42 41 40
35 37 38 40 42 42 41 40 40 41 41 41 40 39 39 38 37 36 35 32 33 32 32 35 37 39 39 40 40 40 40 40
36 37 37 39 41 43 42 40 39 40 41 41 39 39 38 36 35 34 33 34 32 32 32 36 39 39 39 39 43 41 40 40
36 36 36 38 39 40 41 39 39 38 38 39 38 37 38 36 35 34 33 31 31 33 35 37 37 38 40 41 41 40 39 38
36 36 37 38 38 39 41 41 39 39 39 40 40 39 37 36 35 33 32 32 34 34 35 38 39 40 39 39 39 39 38 37
34 35 36 38 38 38 41 40 38 37 39 40 39 37 37 35 33 32 33 33 33 36 39 39 37 38 38 38 37 38 37 37
35 36 37 37 38 39 39 38 37 38 37 36 36 36 35 32 32 32 32 32 32 32 34 34 37 37 37 37 36 36 36 36
34 35 37 37 38 37 36 36 36 35 34 34 33 33 33 31 31 31 34 33 33 33 33 35 37 36 36 37 38 36 36 32
34 35 37 37 36 36 34 33 31 32 33 31 29 29 30 30 32 33 33 34 33 34 37 38 35 35 36 36 35 32 31 30
36 38 36 36 35 33 29 31 32 32 30 28 27 28 30 32 33 31 29 29 28 28 30 32 31 30 24 21 21 23 22 23
37 36 35 34 30 26 29 30 31 29 27 28 27 28 29 30 29 28 25 23 21 19 18 18 19 18 19 18 21 20 20 19
36 35 32 27 24 26 29 30 27 27 27 27 26 27 27 28 27 24 22 19 17 16 17 17 18 18 18 22 21 19 19 18
36 29 26 23 24 26 29 27 27 26 26 25 25 26 28 28 24 21 16 15 16 18 18 18 18 17 23 23 22 19 17 17
33 26 25 25 24 26 27 25 26 24 24 23 24 28 28 25 22 16 15 16 17 18 17 18 17 18 21 22 22 20 18 18
30 27 24 22 22 24 27 25 25 24 23 25 27 27 26 22 20 15 16 16 17 17 17 18 19 19 23 22 21 19 18 18

GFSFLT1_sfc_30mbdewp_018.txt.gz
Dewpoint
40 40 40 40 46 45 48 55 54 51 48 47 45 44 44 44 43 45 46 45 46 45 45 47 49 46 46 46 47 48 47 48
39 40 43 46 48 49 50 47 45 43 41 40 42 43 43 43 43 45 43 44 43 43 42 43 42 42 43 44 44 44 44 46
40 42 43 42 42 42 41 42 42 42 42 41 43 43 42 42 43 43 43 43 42 41 42 41 41 41 41 43 44 44 43 44
37 40 43 44 42 41 41 41 42 43 44 41 42 42 41 41 42 41 42 42 40 39 39 39 40 41 41 42 41 42 42 43
36 40 42 44 43 43 41 41 41 42 43 43 43 43 42 42 42 41 41 39 40 38 37 38 40 41 41 42 42 43 43 42
36 38 40 42 44 44 43 42 40 42 43 43 42 42 42 41 41 41 39 39 38 37 36 38 39 40 41 43 45 42 41 40
37 38 39 42 43 44 43 41 40 41 40 41 41 42 41 41 40 39 37 36 36 36 37 38 39 43 43 43 42 41 39 38
36 36 37 39 40 41 41 42 41 41 42 42 43 42 41 39 38 37 35 35 35 36 39 41 41 42 40 40 40 39 38 37
35 36 37 38 39 40 41 42 40 39 41 42 42 40 40 39 37 35 35 35 36 37 37 40 39 40 40 40 40 39 39 39
35 36 37 38 38 40 41 40 39 39 39 39 39 39 39 37 35 35 35 36 35 35 36 38 38 39 38 38 37 36 37 38
35 35 38 39 39 40 40 38 37 37 36 36 35 35 35 35 34 35 36 35 35 35 36 37 38 38 37 37 37 37 37 38
35 36 38 39 40 38 38 36 33 33 34 34 33 33 33 34 36 35 35 35 33 35 35 37 37 36 36 36 37 36 35 33
36 38 38 38 37 37 35 31 32 33 33 31 30 31 31 33 33 34 33 32 32 31 30 30 31 33 34 35 32 33 32 31
36 37 37 36 36 34 30 30 31 32 30 28 28 29 30 31 31 33 32 30 28 26 23 22 21 22 22 22 22 25 23 22
36 36 36 34 30 29 27 29 32 29 28 27 27 29 29 29 30 30 29 27 24 21 21 21 22 21 21 23 23 23 23 21
36 36 34 28 27 26 27 28 30 29 28 26 27 28 28 29 30 30 27 25 20 21 20 22 22 21 21 23 22 22 21 20
36 34 30 27 27 26 25 27 29 29 28 28 27 27 28 29 30 29 26 21 20 21 21 21 21 19 23 24 24 22 22 21
34 30 30 26 23 23 23 24 27 29 30 28 27 30 29 29 29 25 23 20 21 21 22 21 22 24 24 25 24 22 20 20
33 30 24 23 22 22 22 22 22 22 24 24 27 28 30 28 27 24 21 21 21 21 21 23 23 22 25 25 24 22 20 20

GFSFLT1_sfc_30mbdewp_021.txt.gz
Dewpoint
43 46 48 49 51 50 49 52 52 51 48 46 46 46 45 45 45 45 44 44 43 42 41 43 41 41 41 42 42 43 44 44
42 44 45 45 44 43 43 43 42 43 42 41 42 41 42 42 44 43 44 43 42 41 43 42 42 41 42 42 43 42 40 43
42 43 43 42 42 42 42 42 42 42 43 43 44 43 44 44 43 44 43 41 40 38 38 39 40 41 41 42 41 39 40 43
42 42 42 42 41 41 41 42 42 43 43 43 43 43 43 42 41 42 41 40 38 38 37 38 40 40 40 40 40 42 43 43
42 43 42 43 43 43 42 42 42 43 43 42 42 42 40 42 42 41 39 38 37 37 37 38 38 39 40 43 44 42 41 39
41 42 43 43 43 43 42 42 43 43 43 43 42 42 42 42 40 38 37 36 37 36 36 40 42 42 42 42 41 40 40 39
39 41 42 43 43 43 43 42 41 43 43 43 42 41 40 38 37 35 35 36 36 36 40 40 42 40 40 40 40 38 38 38
37 39 41 42 41 42 42 41 40 42 42 43 41 40 39 37 35 34 34 35 35 37 37 40 40 40 40 39 39 39 39 37
36 36 37 39 41 40 41 40 39 40 40 40 39 39 39 36 35 34 34 36 36 36 36 39 39 40 38 38 38 37 37 37
36 38 39 39 40 41 40 38 38 38 37 37 36 37 37 35 34 36 36 35 34 33 35 37 38 38 38 37 37 37 36 37
37 38 39 39 39 39 38 37 35 34 34 35 34 32 33 34 35 34 34 34 34 32 33 36 37 37 37 36 35 36 35 36
38 39 38 38 38 38 37 33 33 33 32 32 30 30 31 35 35 34 33 33 33 32 33 31 32 34 34 34 33 33 33 33
38 38 37 36 36 34 33 32 32 32 30 29 28 30 31 33 33 33 33 32 30 30 27 24 24 23 25 25 26 25 23 22
36 36 36 34 32 29 29 29 32 31 29 28 27 28 30 31 31 32 31 30 28 24 22 22 23 23 23 24 25 24 23 22
37 36 36 33 30 28 27 27 30 30 29 28 27 28 29 30 30 30 30 28 25 22 21 22 23 23 23 23 22 22 22 22
36 35 34 31 28 27 25 25 26 30 30 30 30 30 31 30 30 32 30 27 25 21 21 22 23 23 22 22 23 22 22 22
35 33 31 30 25 23 22 24 25 30 27 29 31 33 32 33 34 32 33 26 21 21 21 22 23 22 25 25 25 23 21 20
34 33 32 29 23 23 23 22 22 22 22 28 30 32 33 35 35 36 32 22 21 21 22 24 23 24 26 26 25 24 22 20
34 34 32 22 23 22 21 20 20 19 24 31 33 33 33 34 35 34 28 23 20 22 24 24 24 24 25 26 27 27 24 22

GFSFLT1_sfc_30mbdewp_024.txt.gz
Dewpoint
47 48 48 50 55 58 58 57 57 56 48 46 46 44 45 46 45 44 43 43 41 41 41 41 42 41 41 42 42 42 41 39
44 45 45 43 44 45 45 44 44 44 45 43 42 42 43 44 44 43 41 39 39 38 38 39 40 39 40 41 42 39 38 42
43 44 44 44 43 43 42 42 42 42 43 43 43 43 43 43 43 40 39 38 38 36 38 38 39 39 39 40 40 41 41 43
41 41 43 43 42 42 41 41 42 42 42 42 43 43 42 42 41 39 38 38 37 37 38 40 41 42 42 43 43 41 41 41
41 41 41 41 42 42 42 42 43 43 42 42 41 41 40 41 39 37 36 38 37 37 40 41 41 42 41 42 42 41 40 39
41 42 42 42 42 42 42 42 43 43 43 43 42 41 40 40 37 36 35 36 36 39 38 41 41 40 40 40 38 38 39 37
42 43 43 43 43 43 42 41 42 43 43 42 40 39 38 36 35 34 35 36 37 36 37 41 40 39 39 39 39 38 37 37
41 41 42 43 42 42 41 40 42 43 42 40 40 38 37 35 34 33 33 35 35 35 36 38 39 39 39 38 38 36 36 36
40 40 41 41 41 41 41 40 40 41 40 38 39 39 37 35 35 34 36 34 34 34 35 38 39 39 38 38 37 36 37 36
39 39 39 40 40 38 37 37 38 37 37 36 35 37 36 35 35 36 35 34 34 33 33 35 38 38 38 37 36 35 35 35
38 38 39 39 39 38 38 37 35 35 35 34 32 31 34 35 36 35 34 33 33 32 31 33 33 36 36 36 35 34 33 33
39 38 37 36 35 33 34 33 33 33 32 32 31 30 31 35 35 34 34 33 33 32 31 31 26 26 26 28 29 29 27 24
37 37 36 33 32 30 32 30 31 32 32 30 29 29 29 34 34 34 34 32 32 29 29 23 23 23 24 24 25 24 23 22
36 35 35 34 31 29 28 28 29 32 31 30 28 28 28 30 32 33 34 33 32 32 24 22 22 24 24 24 23 23 22 22
35 34 34 32 29 28 26 25 28 30 30 28 30 31 32 32 31 32 33 36 35 32 23 22 23 24 23 22 22 22 22 22
34 34 32 31 28 25 24 24 25 26 25 29 30 31 31 30 31 33 36 35 34 31 24 23 24 23 22 23 23 23 22 21
34 33 32 32 30 23 23 21 22 22 25 29 32 32 33 34 35 36 35 36 35 26 25 24 24 23 25 25 25 24 23 22
34 33 33 31 22 21 20 20 21 21 29 32 33 33 32 32 34 36 35 33 32 31 25 24 24 24 26 27 28 27 25 24
30 26 23 22 21 19 20 19 20 28 31 31 33 33 33 35 34 34 33 33 31 25 25 25 24 23 27 28 27 26 25 24

GFSFLT1_sfc_30mbdewp_027.txt.gz
Dewpoint
46 49 54 57 57 56 56 56 56 49 48 46 45 45 44 44 42 40 40 39 39 38 38 39 39 38 38 39 39 40 39 40
46 46 47 49 47 47 48 47 46 46 46 44 43 42 43 41 39 39 38 38 38 37 39 40 40 40 41 42 41 41 40 42
43 44 46 45 45 45 42 42 42 42 42 44 43 43 42 40 38 38 38 37 37 39 40 40 41 40 40 42 42 41 42 41
43 44 44 44 41 40 40 41 41 42 43 43 43 43 43 39 38 37 38 37 38 39 40 40 39 40 39 41 41 39 38 40
43 43 42 41 41 41 42 42 42 42 42 41 40 39 40 40 37 37 36 37 38 38 38 39 39 40 39 39 39 38 37 36
42 42 41 42 42 42 42 43 43 43 43 42 42 40 39 38 37 35 35 36 37 36 37 40 39 39 39 38 38 37 37 36
41 42 43 43 43 41 41 43 43 43 42 42 40 39 37 36 35 34 34 36 36 35 37 40 39 38 38 38 38 37 36 36
42 43 43 43 42 41 41 41 42 42 41 40 39 38 37 35 33 33 32 34 35 34 34 38 38 38 39 39 38 36 35 34
41 42 41 41 41 41 40 41 40 41 39 39 39 37 36 35 34 34 33 34 34 34 32 37 38 38 39 38 37 36 35 34
39 40 39 39 38 38 37 38 40 39 37 37 37 38 37 35 35 35 35 36 34 34 32 35 36 38 38 37 36 35 34 34
38 38 38 38 38 36 36 37 36 35 34 34 33 33 34 36 36 35 35 35 34 34 32 33 34 33 35 34 33 32 32 31
37 36 36 35 33 31 33 34 33 33 33 33 32 32 31 32 35 35 35 35 34 33 33 32 30 26 26 26 26 27 25 23
36 36 34 32 31 30 32 30 30 31 33 32 30 30 30 30 32 34 35 34 34 33 33 34 34 27 24 24 23 25 23 21
35 35 34 33 30 29 28 27 28 31 31 28 29 30 30 30 31 31 33 34 34 34 34 35 31 25 24 25 25 23 22 22
34 33 32 31 28 27 25 26 27 25 26 28 29 30 31 31 31 31 32 33 35 35 35 29 27 27 25 23 22 22 23 22
33 32 32 31 31 25 23 22 23 23 26 29 31 32 32 32 32 33 35 36 35 36 34 30 28 25 22 23 23 23 23 23
32 32 33 33 24 21 20 20 21 23 26 30 31 31 32 32 33 34 36 36 32 34 33 30 24 23 25 26 28 27 25 24
33 33 29 23 21 20 18 19 21 22 30 31 31 33 32 33 34 34 33 32 32 32 30 25 24 24 27 28 27 25 25 24
29 22 22 21 20 19 19 20 20 29 29 29 30 31 31 32 34 32 33 32 32 28 25 24 23 24 25 23 26 22 21 21

GFSFLT1_sfc_30mbdewp_030.txt.gz
Dewpoint
47 54 56 57 58 58 58 55 54 51 50 47 45 43 41 40 39 39 38 38 38 39 40 40 40 40 41 42 41 41 41 41
47 49 50 51 54 56 56 51 50 50 47 43 42 40 39 38 38 39 37 38 39 38 39 38 38 37 39 41 41 40 40 40
46 46 47 49 51 52 52 49 50 46 44 43 42 40 39 38 38 38 37 38 39 39 38 37 37 34 36 40 39 37 38 39
45 46 46 46 46 43 43 43 42 42 43 43 42 42 41 38 37 36 37 38 38 38 37 35 36 38 38 39 38 36 36 37
45 44 41 40 41 41 41 42 42 42 42 42 41 40 40 39 36 36 36 37 37 37 37 37 37 39 37 38 38 37 36 33
42 41 41 41 41 42 42 43 43 43 42 42 41 40 39 38 37 35 35 36 37 36 36 38 38 38 38 37 37 37 36 35
42 42 42 42 42 42 42 43 43 43 43 42 40 38 37 36 36 35 34 35 36 35 36 38 38 38 37 37 37 37 36 35
41 42 42 43 42 40 42 42 42 42 41 40 40 38 37 36 34 33 33 33 34 35 34 36 38 38 38 38 37 37 35 34
42 43 42 42 41 40 41 41 41 41 40 39 39 38 37 35 34 34 34 33 34 35 34 33 36 37 38 38 37 36 35 34
41 41 40 41 39 38 39 39 40 39 37 37 37 37 37 37 36 36 35 35 35 35 35 32 35 36 37 38 37 36 34 33
39 39 38 38 36 35 37 38 37 37 37 36 35 34 33 33 33 34 35 36 35 35 34 33 33 33 32 33 34 32 31 30
37 36 35 34 31 31 34 34 33 33 33 33 32 31 30 31 31 32 33 35 35 34 34 33 33 34 33 29 28 27 27 25
36 35 32 31 30 31 31 30 29 29 33 31 28 30 30 29 30 31 32 33 34 34 34 33 35 35 32 26 26 26 24 22
34 34 33 31 28 30 28 26 28 27 26 26 28 29 31 30 31 31 31 32 34 34 34 35 34 29 27 27 26 23 21 22
34 33 32 31 28 27 25 25 25 23 25 28 30 31 31 30 30 31 33 35 35 35 35 36 34 29 27 24 22 23 23 23
33 32 32 31 31 25 23 21 22 24 23 29 31 31 31 31 31 33 34 35 35 33 31 31 29 25 23 24 26 27 26 25
32 32 33 33 24 21 20 19 20 23 23 30 31 31 31 31 32 34 33 33 33 34 32 29 24 24 27 28 28 26 24 24
32 33 28 23 20 19 18 19 21 22 29 30 29 30 31 30 32 33 31 32 31 31 27 24 22 25 27 24 26 23 21 20
32 25 22 21 20 18 19 20 20 27 28 27 27 28 29 30 31 33 31 31 31 28 25 23 23 23 21 20 23 22 20 19

GFSFLT1_sfc_30mbdewp_033.txt.gz
Dewpoint
49 55 57 58 58 58 57 57 55 54 54 50 46 43 42 42 41 40 40 40 41 40 39 38 35 34 35 36 36 36 38 36
51 53 56 57 58 56 56 55 55 54 51 45 42 42 41 40 39 39 40 40 40 39 36 36 35 33 36 37 34 33 30 35
50 51 54 56 56 55 56 56 53 50 45 44 43 41 40 39 39 39 39 40 39 37 36 35 36 32 35 36 35 29 31 36
49 51 53 55 55 55 53 51 49 47 45 44 42 41 40 38 38 37 38 39 38 38 37 36 36 35 32 35 35 32 27 30
47 47 46 46 46 47 48 46 45 45 45 44 43 42 41 40 39 38 37 39 38 37 37 38 38 37 34 33 34 33 33 27
43 41 41 42 43 44 44 44 44 44 44 44 43 42 41 39 39 39 39 38 39 38 37 38 38 36 35 36 37 37 35 32
41 41 42 42 43 44 45 44 44 44 44 44 43 42 40 39 39 38 38 37 37 38 37 38 38 38 38 38 38 38 36 35
41 41 42 42 42 44 44 44 43 43 43 43 42 41 41 39 38 37 37 36 35 36 38 37 37 39 39 39 38 37 37 35
42 42 43 43 42 42 43 43 42 42 42 41 41 41 40 39 38 38 37 37 37 38 38 37 36 37 38 39 37 36 37 37
42 43 43 43 42 42 43 41 41 41 40 40 40 39 39 38 37 37 36 37 35 36 37 37 36 36 36 36 35 34 34 34
42 42 41 40 39 39 40 41 40 40 38 38 36 35 35 34 34 34 33 33 34 34 34 35 36 35 35 34 33 31 30 31
40 39 39 36 33 34 37 37 35 34 35 35 34 32 32 32 31 32 32 33 32 33 34 35 35 34 35 34 33 29 27 27
37 36 34 32 31 34 33 32 30 32 33 30 30 31 31 31 30 30 30 30 32 33 35 35 35 36 36 31 27 28 27 25
36 34 33 31 31 32 29 29 28 26 26 26 29 31 31 30 29 30 31 32 34 36 36 36 33 30 29 29 28 26 23 23
34 34 32 30 29 28 27 27 26 25 25 27 30 32 31 30 30 31 33 34 34 34 35 35 34 31 28 26 23 24 25 25
34 33 32 32 31 27 25 24 25 25 24 28 32 32 32 31 31 32 34 33 32 33 32 32 28 25 24 27 27 25 23 20
34 32 32 33 29 24 23 22 22 25 24 28 32 31 31 30 30 32 33 32 32 33 32 27 25 25 28 25 25 22 19 16
32 32 33 30 23 22 20 20 23 23 26 31 29 29 29 29 29 31 30 32 31 32 29 25 24 25 23 21 25 20 17 15
33 32 26 23 22 20 20 20 21 24 29 28 27 28 28 28 28 27 28 32 32 31 26 24 22 19 21 20 20 17 17 15

GFSFLT1_sfc_30mbdewp_036.txt.gz
Dewpoint
48 51 50 50 54 58 58 59 58 56 55 56 49 46 44 43 42 42 42 43 43 41 37 36 32 30 29 31 31 30 28 31
51 54 55 55 58 58 58 57 57 56 55 52 47 43 42 42 41 42 42 42 39 35 32 33 32 31 32 31 27 26 26 30
52 55 56 57 56 57 58 57 59 56 54 49 45 44 42 42 41 42 42 38 36 33 33 31 32 28 31 32 33 30 25 28
52 55 56 57 57 57 57 57 56 52 46 46 45 44 42 40 40 40 40 38 35 34 33 33 33 33 29 32 32 31 29 27
53 53 54 55 55 56 53 51 49 47 46 43 42 40 40 41 41 41 36 38 36 33 34 35 35 34 34 32 30 34 32 28
47 46 47 49 51 51 48 47 46 45 45 45 44 43 43 42 41 38 36 36 38 36 35 35 35 34 35 36 35 34 32 31
42 40 41 42 44 45 45 44 43 44 45 45 45 43 41 38 35 33 30 32 33 34 35 37 37 38 38 37 36 35 34 34
39 39 40 42 44 45 45 44 44 45 45 44 42 39 36 34 34 32 35 32 33 33 36 36 36 36 37 37 36 35 35 33
38 40 41 42 43 44 43 43 42 43 42 40 39 37 35 34 35 37 35 34 33 32 30 30 29 30 32 35 35 34 32 32
39 41 42 43 43 44 44 42 41 41 41 39 39 37 36 35 35 33 30 29 26 25 27 26 26 28 31 33 34 33 31 29
40 42 44 44 43 43 43 41 40 40 39 38 35 35 33 30 29 28 27 26 25 26 26 26 28 29 31 33 33 34 32 29
41 42 43 42 40 39 39 38 37 36 35 35 34 29 28 27 26 26 26 27 27 26 27 29 29 30 33 36 37 36 29 27
42 42 41 38 35 35 36 35 32 32 33 30 28 25 26 26 26 26 28 28 28 29 31 30 30 32 32 30 30 30 28 27
40 39 37 35 33 33 32 31 31 28 25 24 24 26 26 25 26 28 28 28 29 30 30 31 31 32 32 31 29 26 25 24
38 37 35 33 32 31 30 30 27 25 22 21 23 26 27 27 28 29 28 29 29 29 30 31 31 29 28 25 24 25 24 22
37 36 34 31 30 30 29 28 26 23 21 21 23 28 29 28 29 28 28 30 30 30 30 30 29 25 24 27 24 23 22 19
36 36 34 31 31 30 27 24 22 22 22 21 25 29 28 28 28 27 28 29 29 30 29 28 27 24 27 24 24 21 19 16
36 35 33 31 31 26 24 21 22 22 21 24 28 27 27 26 26 26 26 27 28 30 29 29 26 26 22 22 21 18 17 16
36 34 32 31 25 22 21 19 20 21 23 25 26 26 25 25 25 25 26 27 28 29 30 28 26 24 21 20 20 18 19 18

GFSFLT1_sfc_30mbdewp_042.txt.gz
Dewpoint
38 41 46 50 56 58 59 58 58 58 58 57 56 55 54 52 48 47 47 47 46 45 43 42 39 37 36 37 37 37 36 35
41 43 43 52 58 58 58 58 57 57 56 54 52 51 49 48 46 46 46 46 42 40 41 38 37 37 36 37 37 36 36 36
45 46 47 55 58 58 59 58 58 57 54 52 52 50 47 46 46 47 47 43 40 40 39 38 37 37 36 39 38 37 36 36
46 48 50 51 58 58 58 58 57 57 51 54 53 49 48 46 46 46 45 42 40 37 37 37 37 38 37 38 37 37 35 35
46 49 52 55 58 58 58 57 56 56 54 49 47 45 44 44 45 46 43 41 40 37 36 36 38 39 38 39 36 38 37 35
46 50 54 54 56 57 58 56 53 52 50 47 46 45 45 44 45 45 43 43 40 38 37 38 39 39 39 39 39 38 38 37
46 53 55 54 57 57 55 52 50 48 46 47 46 46 43 43 43 43 40 38 35 36 38 38 36 35 34 33 34 34 34 36
48 50 52 52 52 53 52 49 46 47 46 47 46 45 42 38 38 37 34 34 35 35 33 32 32 32 32 33 33 34 34 35
46 48 47 49 50 49 48 46 45 46 47 46 45 41 39 38 39 36 34 33 33 31 30 31 31 30 31 32 33 33 33 36
43 45 45 46 47 48 46 45 44 46 46 44 41 39 37 36 35 34 33 31 29 30 30 29 29 31 32 32 33 34 35 35
42 41 42 44 46 47 47 46 45 45 43 41 40 39 36 34 33 31 30 29 29 29 28 28 30 31 32 34 35 35 33 34
41 39 41 43 45 47 47 46 43 42 40 40 38 36 35 33 31 29 28 28 28 27 27 28 29 31 32 32 32 31 31 31
40 40 42 43 45 46 46 45 42 40 39 37 37 35 34 31 29 28 27 28 28 27 28 28 29 29 30 31 32 31 30 29
39 40 41 43 45 45 45 43 40 38 34 35 35 35 29 28 28 26 27 28 28 28 28 29 29 30 28 30 30 29 28 26
38 40 42 44 44 44 42 39 37 34 35 34 32 29 28 28 26 27 28 29 28 29 29 29 29 28 29 28 27 26 24 22
36 39 42 43 43 41 39 38 35 36 34 29 27 26 28 27 27 29 29 29 28 29 30 29 29 29 27 27 25 24 24 22
36 39 41 42 41 38 38 35 36 34 30 27 25 24 26 26 27 29 29 28 28 29 29 30 29 28 26 24 23 22 23 22
36 38 39 39 39 37 35 35 34 29 27 25 23 23 26 26 26 24 25 26 29 29 29 30 30 30 26 24 21 21 22 23
34 37 38 39 38 36 35 31 27 27 26 23 21 23 24 25 24 24 25 27 28 28 28 30 31 30 27 24 21 21 23 22

GFSFLT1_sfc_30mbdewp_045.txt.gz
Dewpoint
46 47 50 52 56 58 57 57 56 56 56 56 56 55 53 53 49 47 47 47 46 43 43 40 39 38 36 36 37 38 36 36
44 47 51 56 58 58 57 56 56 56 55 54 53 51 51 48 46 47 47 47 43 44 43 41 38 37 35 39 37 36 36 36
41 45 54 57 58 58 57 56 56 57 55 53 52 49 48 45 45 46 47 45 41 39 38 37 37 36 38 38 37 36 37 36
43 47 57 58 58 58 57 57 56 57 56 53 52 49 47 46 46 46 46 41 39 39 38 37 37 38 37 37 38 37 36 37
45 47 57 58 58 59 58 57 57 57 55 53 51 47 46 46 46 47 42 41 40 38 37 36 38 39 37 39 39 37 36 33
47 49 55 58 58 58 58 57 57 57 56 53 49 47 46 46 46 45 42 41 40 39 40 40 37 36 35 33 32 33 34 33
48 51 55 58 58 58 58 57 56 55 52 50 47 46 45 46 46 44 43 43 40 38 35 33 33 32 32 32 32 32 33 34
50 53 54 56 56 57 58 57 53 50 48 47 47 44 43 43 43 41 37 36 35 32 31 31 31 31 30 31 31 32 32 34
53 54 54 55 56 56 55 51 48 47 46 47 45 40 38 38 39 35 35 33 32 31 30 30 29 30 31 31 32 34 35 35
51 52 53 53 53 52 49 46 46 46 47 45 41 39 39 36 35 34 33 31 31 30 29 28 29 30 32 35 34 34 33 34
47 48 49 50 49 48 47 46 46 47 44 41 38 38 36 35 34 33 32 30 29 29 27 28 29 32 32 32 33 32 32 32
44 45 47 47 47 47 46 47 46 44 41 40 39 36 35 35 34 32 30 30 29 27 27 28 29 31 31 31 30 32 31 30
43 42 44 46 46 47 47 45 43 42 40 38 37 36 36 33 31 30 30 29 29 27 28 28 30 30 30 29 30 31 31 30
42 41 43 44 46 47 47 43 42 39 37 36 37 36 35 33 32 31 30 29 28 28 28 29 30 30 28 29 30 30 28 25
41 40 42 44 46 47 46 41 39 36 36 36 35 36 34 30 30 29 30 29 28 28 30 30 31 29 28 30 28 25 24 23
40 40 43 46 46 46 42 39 36 35 35 35 35 35 31 29 29 30 31 29 28 29 29 31 31 29 29 27 25 24 23 23
39 44 45 45 45 42 40 36 36 36 35 32 29 29 29 32 30 29 29 29 29 30 30 30 30 29 27 25 24 22 22 22
37 42 44 44 42 40 37 36 37 35 29 27 27 29 29 28 27 26 25 26 28 29 29 29 30 30 28 26 23 21 21 22
36 38 40 40 40 37 37 33 29 29 27 28 28 27 26 26 26 25 26 28 29 28 28 28 31 31 29 27 24 21 21 23

GFSFLT1_sfc_30mbdewp_048.txt.gz
Dewpoint
54 49 52 52 52 58 58 57 56 56 55 55 54 53 53 51 49 48 48 48 44 42 41 40 39 36 36 37 37 37 36 36
48 49 50 51 57 57 57 56 56 55 54 53 52 51 52 49 48 47 47 46 44 42 41 38 38 35 38 37 37 35 36 37
47 49 50 56 57 57 57 56 55 55 54 53 52 51 50 47 46 47 47 43 42 41 39 36 36 37 37 37 37 36 37 37
46 50 54 56 57 57 56 56 55 55 54 52 50 48 47 45 45 46 47 42 40 39 38 37 37 38 37 38 38 37 35 36
47 51 56 57 57 57 56 55 55 55 54 52 49 47 45 45 45 46 46 41 40 39 38 38 39 39 38 37 34 34 34 30
48 54 56 57 58 57 57 55 55 55 55 53 49 47 46 46 46 46 43 41 40 39 39 39 37 35 33 32 31 32 33 32
46 55 56 57 58 58 57 56 56 57 56 53 51 47 46 46 46 44 42 43 39 36 34 33 33 31 30 31 31 30 31 32
49 55 57 57 57 58 57 57 56 56 56 53 51 47 46 46 46 44 41 37 34 32 32 31 31 30 31 31 32 33 34 35
49 55 57 57 57 57 57 57 56 54 53 51 49 46 46 46 44 41 37 35 34 33 33 31 30 31 32 34 35 35 33 34
51 53 55 57 57 57 57 57 54 52 50 47 43 41 41 40 37 37 36 35 34 33 30 29 30 32 34 33 32 32 32 33
53 53 54 56 56 55 54 53 50 48 47 44 40 40 39 37 37 36 34 33 31 31 31 28 30 32 32 31 31 32 31 31
51 52 52 53 53 50 48 47 48 46 43 41 40 39 39 39 36 35 32 34 35 31 28 28 29 32 31 30 29 30 31 31
49 50 51 51 50 47 46 46 46 43 41 40 37 38 39 37 35 34 35 34 31 29 28 28 30 31 31 29 28 30 30 30
45 47 48 49 48 47 47 46 44 41 40 38 39 40 38 38 35 33 34 32 29 28 28 28 30 31 30 29 29 30 30 27
44 44 46 47 47 48 46 44 43 39 39 40 40 40 38 33 34 32 30 29 28 28 29 30 31 32 30 29 30 30 26 24
43 42 43 45 46 47 45 42 41 41 41 40 39 38 34 33 31 31 31 30 29 29 29 31 31 31 30 30 27 25 24 23
40 43 44 46 47 45 43 42 41 40 39 38 38 32 33 33 33 31 31 30 29 29 30 30 30 30 29 28 26 25 23 22
43 44 46 46 46 44 42 40 40 36 33 33 33 32 31 30 29 27 27 27 28 28 30 30 29 31 30 29 27 23 22 22
40 42 44 43 41 38 37 35 33 31 30 29 29 30 30 30 30 29 31 30 29 29 29 29 29 31 30 30 28 23 22 22

GFSFLT1_sfc_30mbdewp_054.txt.gz
Dewpoint
53 54 54 57 57 56 57 57 56 56 56 56 56 56 55 54 52 50 49 47 44 43 41 39 38 36 36 37 36 37 36 36
54 54 55 56 55 56 57 56 56 56 55 55 54 54 53 51 51 50 48 44 42 42 40 39 37 35 36 36 36 35 36 37
55 55 55 55 54 56 57 56 56 56 56 54 53 52 51 50 50 49 47 44 42 40 39 37 36 37 37 37 36 36 37 36
55 55 54 54 54 56 56 56 55 56 55 53 51 50 49 48 47 47 47 44 42 39 38 37 38 38 37 37 37 34 31 33
54 54 53 53 53 56 56 56 55 55 54 52 51 50 49 47 46 46 47 45 43 41 38 38 38 38 38 35 34 34 30 26
53 53 53 52 53 55 56 56 55 55 54 52 51 50 50 48 47 46 46 43 42 40 39 39 39 37 33 32 31 31 32 30
50 52 51 51 53 55 56 56 55 55 54 53 51 50 49 48 46 45 45 42 41 40 39 37 34 32 31 31 31 31 32 32
46 48 49 50 53 55 55 55 55 56 55 54 53 51 50 48 45 45 43 41 38 38 36 34 33 34 34 32 33 34 34 33
43 46 49 51 54 55 55 55 55 55 56 55 53 52 49 47 46 45 43 40 37 36 36 35 35 34 34 35 34 33 32 32
41 45 49 53 54 55 55 55 55 55 56 55 54 53 50 47 46 44 40 37 37 37 36 35 38 40 36 35 33 31 31 31
43 46 51 54 55 55 56 56 56 56 56 55 54 52 50 47 44 41 38 39 38 37 38 40 41 37 34 33 32 31 31 31
44 49 54 55 56 56 56 57 56 56 56 55 53 50 47 44 42 40 40 39 39 40 41 41 36 34 34 33 31 30 31 30
48 50 54 55 56 56 56 56 56 55 53 50 49 46 44 43 41 40 40 41 41 43 40 34 32 33 32 32 31 30 30 29
49 51 52 54 55 56 56 56 55 51 49 47 46 44 43 41 40 40 42 43 42 37 35 34 32 31 32 32 32 31 30 29
48 50 52 53 54 54 54 52 51 48 46 46 44 43 42 40 40 43 42 39 36 35 33 31 32 31 32 32 31 30 30 30
45 46 49 50 51 50 49 48 46 46 45 44 44 43 40 41 42 38 37 37 34 31 32 32 31 32 32 31 31 30 29 29
42 45 45 48 49 48 47 45 44 44 44 44 42 41 40 37 35 36 35 32 31 30 34 33 33 31 31 31 31 30 29 27
44 45 46 47 47 45 44 44 44 43 41 39 38 37 35 34 33 31 30 33 38 36 37 34 30 31 31 31 30 30 28 27
37 40 40 40 40 39 38 38 37 36 34 34 33 31 31 32 35 37 38 38 38 37 31 30 29 29 29 30 30 31 28 26

GFSFLT1_sfc_30mbdewp_060.txt.gz
Dewpoint
53 53 52 49 49 51 51 52 54 58 58 56 53 54 53 55 57 58 60 60 58 55 51 47 43 41 42 39 39 37 35 36
53 53 53 51 49 52 53 54 56 58 57 53 50 51 52 54 56 59 59 58 57 55 50 46 43 42 41 42 41 39 38 38
51 53 53 53 50 51 53 55 57 57 56 52 50 50 52 53 57 58 58 57 55 53 49 45 43 43 43 42 40 39 39 37
49 52 53 53 53 53 53 54 56 56 56 53 51 51 54 54 55 58 57 55 53 51 48 44 44 43 42 42 42 40 38 37
47 51 52 53 53 53 54 54 55 56 57 53 52 48 48 51 54 57 57 54 52 49 46 44 45 42 41 42 41 40 38 34
45 49 51 53 54 55 55 54 55 56 57 56 54 51 47 51 56 56 55 53 50 46 45 45 45 42 43 42 41 39 34 30
46 45 51 52 54 55 56 56 55 56 57 57 56 55 53 55 55 55 54 53 50 47 44 45 44 42 43 42 40 36 32 35
47 46 48 51 53 55 56 56 55 55 57 58 58 57 56 55 54 54 53 51 49 47 45 45 43 43 42 40 36 36 36 38
45 47 48 50 53 55 56 56 56 55 57 57 58 57 57 56 55 55 53 51 48 49 47 44 43 42 39 38 38 39 38 37
43 45 47 50 52 54 55 56 55 55 57 58 57 57 56 55 55 54 53 50 50 49 46 45 41 39 40 40 42 39 37 38
40 43 46 49 51 53 55 56 56 56 56 57 57 57 57 56 55 54 52 51 52 47 44 39 40 42 43 41 39 37 36 36
40 41 43 46 50 52 54 55 54 54 55 56 57 56 56 56 56 54 51 50 47 44 41 41 43 44 41 39 37 36 36 34
41 42 44 46 49 51 52 53 53 53 55 56 56 56 56 55 54 51 50 46 43 42 42 44 43 41 39 38 37 38 35 32
43 45 46 48 50 51 52 54 54 55 56 56 56 56 55 52 49 45 44 43 43 44 44 43 39 39 38 38 39 37 33 32
41 45 48 51 53 54 55 55 56 55 54 53 51 50 48 46 45 45 44 44 44 44 41 40 39 39 40 40 36 34 33 30
38 46 49 51 53 55 54 53 51 51 50 49 48 47 46 45 45 45 44 43 41 40 39 40 41 40 39 38 35 35 32 31
44 46 49 51 52 51 51 51 51 49 47 45 44 44 43 43 42 42 42 41 40 39 39 38 38 38 38 36 36 37 33 31
45 47 48 48 48 49 48 48 48 46 44 43 42 42 41 41 39 37 36 36 36 36 38 39 39 39 38 38 37 31 30 30
43 44 45 45 45 45 44 43 42 41 40 39 39 38 36 37 38 38 38 38 38 40 40 40 39 35 32 31 30 29 27 26

GFSFLT1_sfc_30mbdewp_063.txt.gz
Dewpoint
48 48 47 47 48 49 49 49 50 51 53 51 49 50 49 48 50 51 57 59 59 57 54 53 50 47 45 44 44 41 38 37
48 49 48 47 48 49 49 48 49 52 52 50 47 47 48 49 51 53 56 59 60 59 55 53 51 47 46 46 45 41 39 40
46 48 48 47 47 48 48 48 49 52 52 51 46 44 46 47 49 53 58 59 59 58 56 53 51 47 47 47 45 42 41 41
46 47 49 48 48 49 50 50 50 51 50 50 46 46 46 48 49 52 58 59 58 57 56 53 51 48 47 48 45 42 40 41
46 49 50 51 50 49 50 50 50 51 52 50 48 45 43 46 49 50 56 57 57 56 55 52 49 48 48 48 46 44 42 40
41 46 49 51 52 51 51 50 50 51 53 52 51 48 46 47 49 51 57 57 56 55 54 51 49 48 48 47 46 44 42 39
38 42 46 48 50 52 53 52 51 52 53 54 54 52 51 46 47 54 57 57 55 54 51 51 50 49 48 46 46 44 40 35
40 39 43 47 48 51 53 54 52 52 53 54 55 55 55 53 52 55 55 55 55 54 52 50 49 49 47 47 45 42 38 37
40 42 40 45 48 50 53 53 54 53 55 56 57 57 57 56 56 57 56 56 56 54 53 49 48 49 49 45 41 40 39 40
37 41 43 43 46 50 53 53 53 54 55 56 58 58 58 58 58 57 57 57 54 52 50 48 49 50 43 42 41 42 41 40
36 40 43 46 47 50 53 55 54 54 55 57 58 59 59 58 58 56 56 55 53 50 50 50 47 42 42 43 43 41 39 39
38 39 41 44 47 50 53 55 55 55 55 57 59 59 58 58 57 56 56 55 53 52 50 44 43 44 45 43 40 39 38 37
37 40 42 43 46 48 51 53 55 55 55 56 58 57 57 57 57 57 55 53 49 46 43 44 44 44 43 41 39 39 38 38
34 39 42 44 47 49 50 52 52 52 53 55 57 57 56 54 50 48 46 45 44 44 45 44 44 42 39 39 40 40 41 41
34 38 43 46 49 50 52 54 56 56 56 55 53 51 49 47 46 45 44 44 44 44 44 41 41 40 40 39 40 41 39 38
30 39 43 48 52 55 55 53 53 52 51 50 48 47 47 46 45 45 45 45 43 41 41 41 40 40 41 41 40 39 38 37
39 41 47 50 53 53 52 51 50 49 48 47 46 46 45 45 44 43 42 42 41 40 40 40 40 40 40 40 39 37 37 36
43 46 50 51 51 51 51 49 48 46 45 45 44 44 43 43 43 41 41 40 40 39 39 39 39 39 39 38 38 37 33 30
46 47 48 48 49 48 48 47 46 45 44 43 43 41 39 39 39 39 39 38 38 38 39 40 40 39 39 38 33 30 29 28

GFSFLT1_sfc_30mbdewp_066.txt.gz
Dewpoint
52 53 51 51 51 48 47 50 53 54 55 54 53 54 52 52 52 56 57 56 58 57 56 54 52 51 50 47 48 45 44 39
53 51 49 49 50 51 50 50 53 54 52 52 51 53 52 51 51 53 59 59 59 59 56 56 53 52 49 48 49 46 42 43
46 47 48 49 50 52 51 51 53 53 52 52 50 51 52 50 51 53 58 59 60 60 59 57 54 52 51 50 48 46 44 44
46 48 48 49 50 51 50 50 51 52 51 51 50 50 50 50 50 53 58 60 60 59 59 58 55 53 52 51 49 48 44 45
45 48 48 49 50 51 50 49 49 51 53 51 50 46 45 48 49 52 58 60 60 59 58 58 55 53 50 50 50 48 46 44
44 45 49 49 50 51 51 51 50 51 52 52 51 48 48 47 50 50 57 58 58 58 57 57 53 53 52 53 49 48 47 45
44 47 48 50 51 52 52 52 51 51 53 53 54 51 50 48 50 51 58 58 58 58 56 54 53 52 52 53 52 50 50 44
40 44 48 50 51 53 53 52 51 51 53 55 54 56 54 52 50 53 58 57 57 56 55 54 53 52 52 51 51 50 44 40
39 39 46 49 51 53 54 53 52 52 53 55 56 56 57 55 55 57 57 57 57 57 55 54 53 52 51 51 49 45 44 44
40 41 41 47 49 52 54 54 54 53 53 55 56 57 57 57 57 58 58 58 58 57 56 53 51 50 51 48 45 43 43 42
33 40 43 43 49 51 54 54 54 55 55 56 57 58 59 59 59 59 58 58 54 53 51 50 50 48 45 44 45 43 42 40
36 38 42 45 46 49 53 54 54 54 55 56 57 59 60 60 59 58 58 57 55 53 52 49 47 44 44 44 43 41 39 39
37 39 40 42 47 48 53 55 55 55 56 57 58 60 60 58 57 57 57 55 54 51 48 45 44 44 45 42 41 40 38 38
36 40 41 42 44 47 52 55 55 56 58 58 59 58 57 54 52 50 49 48 47 45 45 44 45 43 42 41 40 39 39 39
30 37 41 44 47 49 54 57 57 56 56 54 51 50 49 48 47 46 46 45 45 45 45 43 42 41 40 40 40 40 41 41
29 35 43 47 54 55 55 54 53 52 50 49 47 47 46 46 45 45 45 45 44 43 42 42 41 40 40 40 41 41 40 39
34 35 46 54 54 52 52 50 49 49 47 46 47 46 46 45 44 43 43 42 42 41 41 41 40 41 41 41 40 39 38 37
40 41 51 53 52 51 50 48 47 47 47 46 45 45 44 44 43 42 41 41 41 41 40 40 40 40 39 39 38 38 38 36
44 49 51 51 51 50 49 48 47 46 45 45 45 44 43 42 41 41 41 41 39 39 39 39 40 40 39 39 39 37 32 30

GFSFLT1_sfc_30mbdewp_072.txt.gz
Dewpoint
54 54 53 54 54 55 56 54 54 54 54 53 53 53 54 55 56 57 56 57 56 54 53 53 52 51 49 46 44 45 42 40
53 53 53 53 53 54 54 53 54 54 51 51 51 51 53 53 55 55 56 57 56 55 54 54 52 50 48 46 45 44 45 42
52 52 52 53 53 53 52 53 53 54 52 49 51 51 52 53 54 55 56 56 57 56 55 54 51 50 49 48 47 46 46 44
52 52 51 52 52 52 50 52 52 52 53 49 51 52 51 52 51 53 56 56 56 56 56 55 53 51 50 49 48 46 45 46
52 51 51 51 50 50 49 49 48 51 53 49 50 47 49 49 51 51 54 57 57 57 57 56 54 53 51 51 49 48 47 46
51 50 50 50 48 47 46 47 48 50 53 50 51 51 52 51 51 50 52 57 58 58 58 57 56 55 53 53 53 50 49 48
51 49 49 45 44 45 46 46 48 50 53 52 51 50 50 50 51 50 52 57 58 59 59 58 58 56 54 54 53 52 51 50
50 48 47 46 45 45 47 48 48 50 52 52 51 50 50 49 50 50 50 54 57 58 58 58 57 56 55 53 52 52 51 50
49 49 47 47 48 48 49 49 49 51 52 52 52 53 51 51 49 50 51 52 55 58 58 57 56 55 53 52 52 50 49 48
47 47 47 48 48 49 51 50 50 50 50 50 50 51 53 52 51 50 52 55 56 57 57 56 55 54 52 51 50 48 47 46
46 47 47 48 49 49 50 50 50 50 50 50 50 50 54 54 53 53 54 56 56 56 55 54 53 52 51 50 48 46 46 45
43 46 48 48 48 49 50 50 49 50 50 51 50 51 52 55 55 56 57 57 57 57 57 54 53 52 50 48 46 45 45 43
40 43 46 47 49 49 48 50 50 51 54 55 56 56 57 56 57 58 58 56 55 56 54 53 51 49 48 46 45 44 43 42
39 41 42 44 49 49 50 51 53 57 57 57 58 58 58 58 58 58 55 53 55 53 51 50 48 46 45 44 44 43 42 41
36 40 46 50 52 51 52 54 56 56 54 56 57 57 56 57 56 55 54 53 50 49 49 47 46 44 43 43 42 41 41 40
37 41 52 53 53 54 54 54 55 55 52 52 51 50 50 49 49 49 48 48 47 47 45 44 43 43 43 42 42 41 40 40
37 43 52 52 52 52 52 51 51 51 49 48 48 48 47 47 46 45 45 45 44 44 43 42 42 42 41 41 41 41 41 39
42 45 52 52 51 50 50 50 50 49 48 47 47 47 46 45 44 44 43 43 43 42 42 41 41 41 40 41 41 40 38 37
46 50 51 50 50 50 49 49 49 48 47 46 46 45 44 43 43 43 42 42 41 41 41 40 40 40 40 40 38 37 32 29

GFSFLT1_sfc_30mbdewp_075.txt.gz
Dewpoint
54 54 54 54 55 56 56 56 56 56 55 55 55 55 56 57 56 56 55 53 53 52 51 51 51 50 49 47 44 43 41 38
54 54 54 54 55 55 56 55 55 54 54 53 53 53 54 56 56 56 56 54 54 54 53 52 52 50 49 48 45 44 43 42
52 52 53 53 53 54 55 54 54 53 52 53 53 52 53 54 55 56 56 57 55 55 54 53 52 50 49 47 46 45 44 43
52 51 52 52 53 53 54 53 53 54 51 50 51 51 52 52 53 54 55 56 56 56 55 53 52 51 49 48 46 46 45 45
52 52 51 51 52 53 52 53 53 54 52 49 50 50 49 51 51 52 54 56 55 56 56 55 53 52 50 49 48 47 47 46
51 51 51 51 52 52 51 51 52 52 52 50 49 48 48 49 51 51 51 54 56 56 56 55 54 53 52 51 50 49 49 48
51 51 51 51 51 51 50 49 49 49 50 52 49 50 50 50 50 49 51 52 55 56 56 56 56 55 53 52 52 51 50 49
51 50 50 50 49 48 48 47 47 47 49 51 51 50 51 50 51 50 50 51 53 55 57 57 57 56 55 54 54 53 51 50
50 50 49 48 47 46 46 46 46 46 48 50 52 51 51 51 51 51 51 51 52 55 57 57 58 57 56 55 54 53 51 51
50 50 49 47 44 44 45 45 45 45 47 50 51 52 51 50 51 51 51 52 52 55 57 57 57 56 55 54 53 52 50 49
50 50 49 48 45 44 44 45 46 47 48 50 51 52 53 53 52 52 51 52 55 56 56 56 55 55 54 53 51 50 49 48
47 49 50 49 48 47 47 47 48 49 49 50 51 51 51 53 54 54 53 55 56 56 56 56 55 53 52 51 50 48 48 46
46 47 47 48 48 48 49 49 50 52 53 52 52 52 51 52 54 55 56 56 57 57 57 57 55 53 52 50 48 47 46 45
43 45 46 48 48 48 49 50 50 52 53 53 53 54 53 54 55 56 57 57 57 57 56 55 54 52 50 48 47 46 45 44
39 41 43 46 47 49 49 49 51 52 53 53 54 54 56 56 56 57 57 58 57 54 54 53 50 48 47 46 45 44 43 42
38 40 43 45 46 49 49 51 52 54 54 54 55 55 55 56 56 56 56 54 52 51 49 47 46 45 45 44 43 42 42 41
37 42 48 50 50 51 52 53 53 54 53 53 51 52 51 51 50 49 48 47 47 46 45 44 44 44 43 43 42 41 41 41
35 41 48 51 51 52 52 51 52 52 51 49 49 49 48 47 46 46 45 45 44 43 43 43 42 42 41 41 41 40 39 38
32 42 50 51 51 51 50 50 51 50 49 49 48 47 45 45 45 44 43 43 42 42 42 41 41 41 41 40 39 36 32 28

GFSFLT1_sfc_30mbdewp_078.txt.gz
Dewpoint
54 53 54 54 56 56 56 56 56 57 57 57 58 58 57 57 56 54 53 52 51 48 48 48 49 49 46 45 42 42 39 37
53 54 54 54 55 56 56 55 56 56 56 56 56 55 56 57 56 55 53 52 52 50 49 50 50 49 48 46 45 42 42 40
54 54 54 53 54 55 55 55 55 55 54 56 56 54 55 56 56 56 54 53 52 52 51 50 51 50 49 48 46 44 43 41
53 53 52 53 53 54 55 54 55 54 54 55 54 54 54 54 55 55 55 55 53 53 53 52 52 51 50 48 47 45 44 44
52 52 51 51 52 52 54 54 54 54 53 53 52 52 52 53 53 54 55 56 56 54 54 54 53 52 50 49 48 47 46 44
52 52 51 51 52 53 53 53 53 54 52 51 51 51 50 51 52 53 54 55 56 56 55 55 54 52 51 50 49 47 47 47
52 52 52 51 52 52 52 53 52 53 52 50 50 49 49 49 50 51 52 52 54 55 55 55 55 54 53 52 51 49 49 48
51 51 51 50 51 51 51 51 51 52 52 51 50 49 49 49 49 49 50 51 51 54 55 55 55 55 54 53 52 51 50 50
51 51 50 50 50 50 51 50 50 49 51 51 51 50 50 50 50 50 50 50 51 53 54 55 56 56 55 55 54 53 53 52
50 50 50 50 50 49 49 49 49 48 49 50 49 52 51 50 51 51 51 52 52 52 54 55 56 56 56 55 54 54 53 54
50 51 50 49 49 48 48 48 48 47 47 48 49 50 52 51 51 51 51 51 52 53 54 55 55 56 55 55 55 54 53 52
49 50 50 49 47 46 47 47 47 46 45 46 48 50 52 52 52 51 51 52 52 53 54 55 55 55 54 54 54 52 51 50
48 50 50 49 47 45 45 46 46 47 48 48 49 50 51 52 52 52 52 52 54 54 55 55 55 55 54 53 52 50 50 48
45 47 49 50 48 47 46 45 46 48 50 50 50 51 51 51 52 52 54 54 54 55 55 55 56 54 53 52 51 50 49 48
41 45 47 48 49 49 49 48 48 48 50 51 51 52 52 53 53 53 54 54 55 55 56 55 54 53 52 50 49 47 47 46
37 40 43 46 47 49 49 50 50 51 52 52 51 52 53 54 54 54 55 55 55 56 54 53 51 50 48 48 46 45 44 43
34 37 40 42 44 47 49 50 51 51 52 52 53 53 54 54 54 54 54 54 53 52 50 50 47 46 45 45 45 43 43 42
30 34 38 43 46 48 49 51 51 52 52 52 52 52 51 51 50 50 49 48 47 46 45 45 44 43 43 43 43 42 41 38
28 32 39 49 51 51 51 52 52 52 51 50 50 50 50 48 48 47 45 44 44 43 43 43 42 41 41 40 38 35 33 31

GFSFLT1_sfc_30mbdewp_084.txt.gz
Dewpoint
51 52 53 53 54 56 56 55 55 56 59 58 58 57 57 57 53 50 47 45 46 45 45 46 42 40 42 40 41 41 39 37
51 53 54 54 54 56 56 55 56 56 57 56 56 55 55 56 54 53 51 44 45 45 46 46 43 43 44 46 44 42 40 40
51 53 54 54 54 55 56 55 55 56 56 57 56 56 56 55 54 53 52 51 46 45 46 48 47 48 49 48 47 45 43 42
51 52 53 55 54 54 56 55 55 56 57 57 57 56 57 56 54 53 52 52 48 46 48 49 51 50 50 50 49 47 45 45
51 52 53 54 54 54 55 56 55 55 56 56 55 53 52 54 54 54 54 53 51 47 49 50 51 50 49 51 50 49 48 47
49 52 53 54 53 53 55 56 55 55 56 56 55 54 52 54 52 51 52 54 53 50 50 51 51 50 51 51 51 52 50 50
48 51 53 53 53 52 54 55 55 55 55 56 55 54 54 53 52 50 47 49 50 53 51 51 52 51 52 53 54 53 53 52
47 50 52 52 52 52 53 54 54 55 55 55 54 54 54 53 51 49 47 46 46 51 53 51 52 53 53 55 56 55 55 54
46 49 51 52 52 52 52 53 53 55 54 54 55 54 54 53 52 51 49 49 50 52 54 55 56 55 56 56 56 56 56 56
44 48 51 52 52 52 52 52 53 53 54 54 54 54 54 54 52 52 51 52 51 53 55 56 56 56 56 56 56 55 56 56
43 46 50 52 52 52 52 53 53 53 54 54 54 53 53 53 53 52 52 53 53 52 54 54 54 54 54 55 54 55 56 56
42 45 48 51 52 52 52 52 51 51 52 54 53 53 53 52 53 53 53 54 53 53 53 53 52 51 52 53 55 55 55 55
43 45 47 49 51 51 52 51 50 51 52 52 53 53 53 53 53 54 55 54 53 52 52 51 51 51 51 52 53 55 55 55
43 46 46 48 50 50 50 51 50 51 52 52 53 53 53 54 54 54 54 53 52 52 51 51 51 51 50 52 53 54 54 55
42 45 46 47 48 50 50 50 50 51 51 51 52 53 53 53 53 53 52 51 51 50 51 51 51 50 50 51 53 55 55 55
36 43 46 47 48 49 49 50 50 51 50 50 50 51 52 51 52 52 51 51 51 51 51 51 53 53 54 54 55 55 55 54
31 36 43 47 48 49 49 49 50 50 50 49 49 49 50 50 50 50 50 51 51 52 53 53 54 55 55 54 55 54 51 47
33 32 36 44 47 49 49 49 50 50 50 50 49 49 49 49 49 49 50 53 54 54 55 55 55 53 48 47 48 46 44 40
32 32 34 37 44 48 49 49 49 50 49 49 50 50 50 49 49 49 52 54 54 51 48 46 45 42 42 42 39 37 35 34

GFSFLT1_sfc_30mbdewp_087.txt.gz
Dewpoint
46 49 50 51 52 55 56 56 56 58 58 58 56 56 56 55 54 54 54 53 52 50 49 51 49 48 49 47 46 46 44 41
46 50 51 52 53 55 56 56 56 58 57 56 55 54 54 54 53 54 54 52 49 48 47 47 44 43 43 46 46 45 42 41
46 50 52 53 53 54 55 56 56 57 57 56 55 54 53 53 52 51 48 48 47 47 47 46 46 45 46 47 47 44 41 43
46 50 52 54 53 53 54 55 55 57 58 57 55 54 55 54 53 50 48 46 45 47 51 48 50 50 51 51 50 47 45 45
46 50 52 53 54 53 55 55 55 56 58 56 54 51 51 51 50 47 52 51 48 47 50 51 52 51 52 52 51 51 49 47
44 49 51 53 54 53 55 55 55 55 56 56 55 52 51 50 50 49 50 53 53 50 49 52 52 52 53 53 52 52 50 49
42 48 50 52 53 53 55 55 55 55 56 56 55 54 51 52 51 51 52 53 53 52 50 51 51 53 52 53 53 53 53 52
40 47 49 51 52 52 55 54 54 55 55 55 56 54 53 53 51 51 50 51 52 52 52 52 53 53 52 53 55 55 55 54
39 45 49 51 52 52 53 53 54 55 55 55 55 55 52 53 54 51 49 49 51 52 54 53 53 53 54 54 55 56 56 57
37 43 49 50 52 52 53 53 54 55 55 55 55 55 55 53 53 53 50 48 47 48 51 53 54 54 55 55 56 56 56 57
37 41 48 50 51 52 52 53 53 54 55 55 55 55 55 55 54 53 51 49 48 49 51 53 55 55 56 56 56 56 56 57
34 41 46 50 51 52 52 52 52 53 54 55 55 55 56 56 55 54 54 52 51 51 52 53 55 55 55 55 56 55 54 55
34 40 44 49 50 51 52 51 50 52 54 54 55 55 55 55 56 55 55 54 53 53 53 53 54 54 54 54 54 53 53 54
38 41 43 47 50 51 51 51 50 51 52 54 55 55 54 55 55 56 55 55 54 54 53 53 53 53 53 53 53 53 53 53
37 41 43 45 48 50 51 51 51 51 50 51 53 55 55 55 55 55 55 55 54 54 54 54 53 52 51 51 50 51 52 53
31 39 42 44 46 49 51 51 51 51 50 51 52 54 54 54 55 55 55 55 55 54 54 53 53 52 52 52 51 51 51 53
30 32 39 44 45 47 50 51 52 52 51 51 51 53 52 54 54 54 55 54 54 53 52 52 52 52 51 51 53 54 55 55
31 32 32 37 44 46 47 49 51 52 51 51 51 51 51 52 52 52 53 53 53 53 52 52 52 54 51 51 52 51 48 43
34 32 34 34 37 45 48 48 49 51 51 51 51 51 50 50 50 50 51 52 53 53 54 53 50 44 43 44 42 38 36 35